| time (UTC) | temp C | wind direction | speed KPH | gust KPH | rain 1hr cm | rain 24hr cm | rain mn cm | humidity % | barometer mb |
| 20260505093322 | 8 | 191 | 0.0 | 0.0 | 0.00 | 0.00 | 0.00 | 99 | 1011.9 |
| 20260505092819 | 8 | 191 | 0.0 | 0.0 | 0.00 | 0.00 | 0.00 | 99 | 1011.9 |
| 20260505092332 | 8 | 191 | 0.0 | 0.0 | 0.00 | 0.00 | 0.00 | 99 | 1011.9 |
| 20260505091829 | 8 | 191 | 0.0 | 0.0 | 0.00 | 0.00 | 0.00 | 99 | 1011.9 |
| 20260505091310 | 8 | 191 | 0.0 | 0.0 | 0.00 | 0.00 | 0.00 | 99 | 1011.9 |
| 20260505090834 | 8 | 191 | 0.0 | 0.0 | 0.00 | 0.00 | 0.00 | 100 | 1011.9 |
| 20260505090331 | 8 | 191 | 0.0 | 0.0 | 0.00 | 0.00 | 0.00 | 99 | 1011.8 |
| 20260505085828 | 8 | 191 | 0.0 | 0.0 | 0.00 | 0.00 | 0.00 | 99 | 1011.8 |
| 20260505085324 | 8 | 191 | 0.0 | 0.0 | 0.00 | 0.00 | 0.00 | 99 | 1011.8 |
| 20260505084823 | 8 | 191 | 0.0 | 0.0 | 0.00 | 0.00 | 0.00 | 98 | 1011.6 |
| 20260505084317 | 9 | 191 | 0.0 | 0.0 | 0.00 | 0.00 | 0.00 | 98 | 1011.6 |
| 20260505083830 | 9 | 166 | 0.0 | 0.0 | 0.00 | 0.00 | 0.00 | 97 | 1011.6 |
| 20260505083336 | 9 | 166 | 0.0 | 0.0 | 0.00 | 0.00 | 0.00 | 97 | 1011.6 |
| 20260505082806 | 9 | 166 | 0.0 | 3.2 | 0.00 | 0.00 | 0.00 | 98 | 1011.6 |
| 20260505082358 | 9 | 157 | 0.0 | 3.2 | 0.00 | 0.00 | 0.00 | 98 | 1011.6 |
| 20260505081817 | 9 | 191 | 0.0 | 0.0 | 0.00 | 0.00 | 0.00 | 98 | 1011.6 |
| 20260505081334 | 9 | 176 | 0.0 | 0.0 | 0.00 | 0.00 | 0.00 | 98 | 1011.6 |
| 20260505080829 | 9 | 191 | 0.0 | 0.0 | 0.00 | 0.00 | 0.00 | 98 | 1011.6 |
| 20260505080321 | 9 | 190 | 0.0 | 0.0 | 0.00 | 0.00 | 0.00 | 96 | 1011.6 |
| 20260505075858 | 9 | 191 | 0.0 | 0.0 | 0.00 | 0.00 | 0.00 | 97 | 1011.6 |
| 20260505075325 | 9 | 191 | 0.0 | 0.0 | 0.00 | 0.00 | 0.00 | 96 | 1011.6 |
| 20260505074822 | 10 | 191 | 0.0 | 0.0 | 0.00 | 0.00 | 0.00 | 96 | 1011.4 |
| 20260505074319 | 10 | 191 | 0.0 | 0.0 | 0.00 | 0.00 | 0.00 | 96 | 1011.4 |
| 20260505073809 | 10 | 190 | 0.0 | 0.0 | 0.00 | 0.00 | 0.00 | 96 | 1011.4 |
| 20260505073335 | 10 | 190 | 0.0 | 0.0 | 0.00 | 0.00 | 0.00 | 96 | 1011.3 |
| 20260505072830 | 10 | 191 | 0.0 | 0.0 | 0.00 | 0.00 | 0.00 | 97 | 1011.3 |
| 20260505072333 | 10 | 191 | 0.0 | 0.0 | 0.00 | 0.00 | 0.00 | 97 | 1011.3 |
| 20260505071857 | 10 | 190 | 0.0 | 0.0 | 0.00 | 0.00 | 0.00 | 96 | 1011.1 |
| 20260505071345 | 10 | 191 | 0.0 | 0.0 | 0.00 | 0.00 | 0.00 | 95 | 1011.1 |
| 20260505070833 | 10 | 191 | 0.0 | 0.0 | 0.00 | 0.00 | 0.00 | 95 | 1011.1 |
| 20260505070334 | 10 | 190 | 0.0 | 1.6 | 0.00 | 0.00 | 0.00 | 95 | 1011.0 |
| 20260505065826 | 10 | 190 | 0.0 | 1.6 | 0.00 | 0.00 | 0.00 | 96 | 1011.0 |
| 20260505065338 | 10 | 165 | 1.6 | 1.6 | 0.00 | 0.00 | 0.00 | 96 | 1011.0 |
| 20260505064810 | 10 | 154 | 0.0 | 0.0 | 0.00 | 0.00 | 0.00 | 96 | 1010.8 |
| 20260505064353 | 10 | 169 | 0.0 | 0.0 | 0.00 | 0.00 | 0.00 | 95 | 1010.8 |
| 20260505063852 | 10 | 169 | 0.0 | 3.2 | 0.00 | 0.00 | 0.00 | 95 | 1010.8 |
| 20260505063317 | 10 | 169 | 0.0 | 3.2 | 0.00 | 0.00 | 0.00 | 94 | 1010.7 |
| 20260505062831 | 10 | 186 | 0.0 | 3.2 | 0.00 | 0.00 | 0.00 | 93 | 1010.7 |
| 20260505062333 | 10 | 186 | 0.0 | 3.2 | 0.00 | 0.00 | 0.00 | 93 | 1010.7 |
| 20260505061822 | 10 | 186 | 0.0 | 0.0 | 0.00 | 0.00 | 0.00 | 93 | 1010.6 |
| 20260505061337 | 11 | 186 | 0.0 | 0.0 | 0.00 | 0.00 | 0.00 | 92 | 1010.6 |
| 20260505060831 | 11 | 186 | 0.0 | 0.0 | 0.00 | 0.00 | 0.00 | 92 | 1010.6 |
| 20260505060306 | 11 | 186 | 0.0 | 0.0 | 0.00 | 0.00 | 0.00 | 92 | 1010.5 |
| 20260505055850 | 11 | 186 | 0.0 | 0.0 | 0.00 | 0.00 | 0.00 | 92 | 1010.5 |
| 20260505055341 | 11 | 186 | 0.0 | 3.2 | 0.00 | 0.00 | 0.00 | 91 | 1010.5 |
| 20260505054832 | 11 | 186 | 0.0 | 3.2 | 0.00 | 0.00 | 0.00 | 91 | 1010.4 |
| 20260505054330 | 11 | 186 | 0.0 | 3.2 | 0.00 | 0.00 | 0.00 | 90 | 1010.4 |
| 20260505053846 | 11 | 51 | 0.0 | 3.2 | 0.00 | 0.00 | 0.00 | 91 | 1010.4 |
| 20260505053313 | 11 | 149 | 0.0 | 1.6 | 0.00 | 0.00 | 0.00 | 90 | 1010.3 |
| 20260505052840 | 11 | 315 | 0.0 | 0.0 | 0.00 | 0.00 | 0.00 | 89 | 1010.3 |
| 20260505052306 | 11 | 315 | 0.0 | 0.0 | 0.00 | 0.00 | 0.00 | 88 | 1010.3 |
| 20260505051829 | 12 | 307 | 0.0 | 3.2 | 0.00 | 0.00 | 0.00 | 87 | 1010.1 |
| 20260505051325 | 12 | 315 | 0.0 | 3.2 | 0.00 | 0.00 | 0.00 | 87 | 1010.1 |
| 20260505050826 | 12 | 289 | 0.0 | 0.0 | 0.00 | 0.00 | 0.00 | 86 | 1010.1 |
| 20260505050326 | 12 | 289 | 0.0 | 3.2 | 0.00 | 0.00 | 0.00 | 86 | 1010.0 |
| 20260505041317 | 15 | 308 | 0.0 | 0.0 | 0.00 | 0.00 | 0.00 | 81 | 1009.6 |
| 20260505040815 | 15 | 308 | 0.0 | 0.0 | 0.00 | 0.00 | 0.00 | 80 | 1009.6 |
| 20260505040337 | 15 | 308 | 0.0 | 0.0 | 0.00 | 0.00 | 0.00 | 81 | 1009.6 |
| 20260505035809 | 15 | 308 | 0.0 | 0.0 | 0.00 | 0.00 | 0.00 | 80 | 1009.6 |
| 20260505035331 | 15 | 308 | 0.0 | 1.6 | 0.00 | 0.00 | 0.00 | 80 | 1009.6 |
| 20260505034811 | 15 | 308 | 0.0 | 3.2 | 0.00 | 0.00 | 0.00 | 80 | 1009.5 |
| 20260505034332 | 15 | 308 | 0.0 | 3.2 | 0.00 | 0.00 | 0.00 | 80 | 1009.5 |
| 20260505033830 | 15 | 308 | 0.0 | 3.2 | 0.00 | 0.00 | 0.00 | 80 | 1009.5 |
| 20260505033326 | 15 | 308 | 0.0 | 1.6 | 0.00 | 0.00 | 0.00 | 80 | 1009.5 |
| 20260505032823 | 15 | 308 | 0.0 | 0.0 | 0.00 | 0.00 | 0.00 | 79 | 1009.5 |
| 20260505032329 | 15 | 308 | 0.0 | 3.2 | 0.00 | 0.00 | 0.00 | 78 | 1009.5 |
| 20260505031830 | 15 | 308 | 0.0 | 3.2 | 0.00 | 0.00 | 0.00 | 78 | 1009.5 |
| 20260505031322 | 16 | 308 | 0.0 | 3.2 | 0.00 | 0.00 | 0.00 | 76 | 1009.5 |
| 20260505030830 | 16 | 308 | 0.0 | 3.2 | 0.00 | 0.00 | 0.00 | 76 | 1009.5 |
| 20260505030330 | 16 | 308 | 0.0 | 3.2 | 0.00 | 0.00 | 0.00 | 74 | 1009.4 |
| 20260505025830 | 17 | 314 | 0.0 | 3.2 | 0.00 | 0.00 | 0.00 | 73 | 1009.4 |
| 20260505025326 | 17 | 290 | 1.6 | 3.2 | 0.00 | 0.00 | 0.00 | 72 | 1009.4 |
| 20260505024855 | 17 | 324 | 0.0 | 3.2 | 0.00 | 0.00 | 0.00 | 71 | 1009.4 |
| 20260505024334 | 17 | 288 | 0.0 | 4.8 | 0.00 | 0.00 | 0.00 | 70 | 1009.4 |
| 20260505023818 | 18 | 288 | 1.6 | 4.8 | 0.00 | 0.00 | 0.00 | 69 | 1009.4 |
| 20260505023333 | 18 | 289 | 0.0 | 0.0 | 0.00 | 0.00 | 0.00 | 68 | 1009.1 |
| 20260505022825 | 18 | 329 | 0.0 | 0.0 | 0.00 | 0.00 | 0.00 | 67 | 1009.1 |
| 20260505022319 | 19 | 303 | 0.0 | 0.0 | 0.00 | 0.00 | 0.00 | 67 | 1009.1 |
| 20260505021830 | 19 | 303 | 0.0 | 1.6 | 0.00 | 0.00 | 0.00 | 67 | 1009.4 |
| 20260505021305 | 19 | 303 | 0.0 | 4.8 | 0.00 | 0.00 | 0.00 | 67 | 1009.4 |
| 20260505020808 | 19 | 285 | 3.2 | 4.8 | 0.00 | 0.00 | 0.00 | 66 | 1009.4 |
| 20260505020330 | 20 | 305 | 1.6 | 3.2 | 0.00 | 0.00 | 0.00 | 65 | 1009.6 |
| 20260505015826 | 20 | 318 | 0.0 | 3.2 | 0.00 | 0.00 | 0.00 | 66 | 1009.6 |
| 20260505015334 | 20 | 316 | 1.6 | 3.2 | 0.00 | 0.00 | 0.00 | 64 | 1009.6 |
| 20260505014805 | 20 | 337 | 1.6 | 3.2 | 0.00 | 0.00 | 0.00 | 63 | 1009.8 |
| 20260505014327 | 20 | 321 | 0.0 | 3.2 | 0.00 | 0.00 | 0.00 | 63 | 1009.8 |
| 20260505013843 | 20 | 289 | 1.6 | 4.8 | 0.00 | 0.00 | 0.00 | 64 | 1009.8 |
| 20260505013313 | 20 | 308 | 1.6 | 4.8 | 0.00 | 0.00 | 0.00 | 64 | 1009.9 |
| 20260505012837 | 20 | 325 | 3.2 | 4.8 | 0.00 | 0.00 | 0.00 | 62 | 1009.9 |
| 20260505012309 | 21 | 276 | 1.6 | 4.8 | 0.00 | 0.00 | 0.00 | 62 | 1009.9 |
| 20260505011826 | 21 | 274 | 1.6 | 4.8 | 0.00 | 0.00 | 0.00 | 62 | 1010.0 |
| 20260505011325 | 21 | 272 | 3.2 | 6.4 | 0.00 | 0.00 | 0.00 | 61 | 1010.0 |
| 20260505010805 | 21 | 299 | 1.6 | 8.0 | 0.00 | 0.00 | 0.00 | 61 | 1010.0 |
| 20260505010308 | 22 | 280 | 1.6 | 6.4 | 0.00 | 0.00 | 0.00 | 62 | 1010.0 |
| 20260505005831 | 22 | 301 | 3.2 | 6.4 | 0.00 | 0.00 | 0.00 | 62 | 1010.0 |
| 20260505005322 | 22 | 302 | 3.2 | 6.4 | 0.00 | 0.00 | 0.00 | 61 | 1010.0 |
| 20260505004838 | 21 | 343 | 0.0 | 4.8 | 0.00 | 0.00 | 0.00 | 61 | 1010.0 |
| 20260505004330 | 21 | 317 | 1.6 | 6.4 | 0.00 | 0.00 | 0.00 | 61 | 1010.0 |
| 20260505003846 | 21 | 298 | 3.2 | 6.4 | 0.00 | 0.00 | 0.00 | 60 | 1010.0 |
| 20260505003324 | 22 | 303 | 3.2 | 9.7 | 0.00 | 0.00 | 0.00 | 62 | 1010.0 |
| 20260505002823 | 22 | 299 | 3.2 | 9.7 | 0.00 | 0.00 | 0.00 | 63 | 1010.0 |
| 20260505002320 | 22 | 325 | 4.8 | 8.0 | 0.00 | 0.00 | 0.00 | 61 | 1010.0 |
| 20260505001851 | 22 | 328 | 3.2 | 8.0 | 0.00 | 0.00 | 0.00 | 60 | 1010.0 |
| 20260505001347 | 22 | 314 | 1.6 | 8.0 | 0.00 | 0.00 | 0.00 | 58 | 1010.0 |
| 20260505000816 | 22 | 306 | 1.6 | 9.7 | 0.00 | 0.00 | 0.00 | 59 | 1010.0 |
| 20260505000336 | 22 | 286 | 4.8 | 9.7 | 0.00 | 0.00 | 0.00 | 55 | 1010.0 |
| 20260504235811 | 22 | 291 | 0.0 | 8.0 | 0.00 | 0.00 | 0.00 | 57 | 1010.0 |
| 20260504235309 | 22 | 306 | 4.8 | 6.4 | 0.00 | 0.00 | 0.00 | 53 | 1010.0 |
| 20260504234810 | 22 | 299 | 3.2 | 6.4 | 0.00 | 0.00 | 0.00 | 55 | 1010.0 |
| 20260504234308 | 22 | 289 | 3.2 | 6.4 | 0.00 | 0.00 | 0.00 | 56 | 1010.0 |
| 20260504233825 | 22 | 26 | 3.2 | 6.4 | 0.00 | 0.00 | 0.00 | 56 | 1010.0 |
| 20260504233341 | 22 | 339 | 3.2 | 9.7 | 0.00 | 0.00 | 0.00 | 58 | 1010.0 |
| 20260504232816 | 21 | 307 | 4.8 | 9.7 | 0.00 | 0.00 | 0.00 | 57 | 1010.0 |
| 20260504232314 | 21 | 337 | 3.2 | 8.0 | 0.00 | 0.00 | 0.00 | 58 | 1010.0 |
| 20260504231856 | 21 | 285 | 1.6 | 8.0 | 0.00 | 0.00 | 0.00 | 60 | 1010.1 |
| 20260504231307 | 21 | 337 | 4.8 | 9.7 | 0.00 | 0.00 | 0.00 | 58 | 1010.1 |
| 20260504230829 | 21 | 307 | 3.2 | 9.7 | 0.00 | 0.00 | 0.00 | 61 | 1010.1 |
| 20260504230326 | 21 | 306 | 4.8 | 9.7 | 0.00 | 0.00 | 0.00 | 58 | 1010.8 |
| 20260504225823 | 21 | 310 | 6.4 | 9.7 | 0.00 | 0.00 | 0.00 | 59 | 1010.8 |
| 20260504225310 | 21 | 295 | 6.4 | 9.7 | 0.00 | 0.00 | 0.00 | 60 | 1010.8 |
| 20260504224827 | 21 | 304 | 6.4 | 9.7 | 0.00 | 0.00 | 0.00 | 61 | 1010.9 |
| 20260504224309 | 21 | 326 | 4.8 | 9.7 | 0.00 | 0.00 | 0.00 | 61 | 1010.9 |
| 20260504223850 | 21 | 306 | 4.8 | 9.7 | 0.00 | 0.00 | 0.00 | 60 | 1010.9 |
| 20260504223305 | 22 | 320 | 6.4 | 9.7 | 0.00 | 0.00 | 0.00 | 59 | 1010.9 |
| 20260504222810 | 22 | 293 | 4.8 | 9.7 | 0.00 | 0.00 | 0.00 | 58 | 1010.9 |
| 20260504222331 | 22 | 310 | 4.8 | 8.0 | 0.00 | 0.00 | 0.00 | 58 | 1010.9 |
| 20260504221808 | 22 | 281 | 3.2 | 6.4 | 0.00 | 0.00 | 0.00 | 58 | 1011.0 |
| 20260504221330 | 22 | 321 | 3.2 | 8.0 | 0.00 | 0.00 | 0.00 | 57 | 1011.0 |
| 20260504220835 | 22 | 318 | 4.8 | 8.0 | 0.00 | 0.00 | 0.00 | 57 | 1011.0 |
| 20260504220309 | 22 | 278 | 3.2 | 8.0 | 0.00 | 0.00 | 0.00 | 59 | 1011.1 |
| 20260504215822 | 21 | 327 | 4.8 | 8.0 | 0.00 | 0.00 | 0.00 | 58 | 1011.1 |
| 20260504215320 | 21 | 329 | 4.8 | 8.0 | 0.00 | 0.00 | 0.00 | 57 | 1011.1 |
| 20260504214837 | 22 | 300 | 3.2 | 9.7 | 0.00 | 0.00 | 0.00 | 55 | 1011.2 |
| 20260504214348 | 22 | 330 | 6.4 | 9.7 | 0.00 | 0.00 | 0.00 | 58 | 1011.2 |
| 20260504213807 | 22 | 291 | 3.2 | 9.7 | 0.00 | 0.00 | 0.00 | 57 | 1011.2 |
| 20260504213358 | 22 | 321 | 6.4 | 9.7 | 0.00 | 0.00 | 0.00 | 56 | 1011.3 |
| 20260504212829 | 22 | 335 | 3.2 | 9.7 | 0.00 | 0.00 | 0.00 | 56 | 1011.3 |
| 20260504212325 | 22 | 332 | 3.2 | 8.0 | 0.00 | 0.00 | 0.00 | 56 | 1011.3 |
| 20260504211806 | 22 | 337 | 3.2 | 8.0 | 0.00 | 0.00 | 0.00 | 55 | 1011.4 |
| 20260504211317 | 22 | 325 | 4.8 | 9.7 | 0.00 | 0.00 | 0.00 | 54 | 1011.4 |
| 20260504210851 | 22 | 295 | 4.8 | 9.7 | 0.00 | 0.00 | 0.00 | 56 | 1011.4 |
| 20260504210322 | 22 | 309 | 4.8 | 9.7 | 0.00 | 0.00 | 0.00 | 60 | 1011.2 |
| 20260504205825 | 22 | 343 | 6.4 | 11.3 | 0.00 | 0.00 | 0.00 | 58 | 1011.2 |
| 20260504205327 | 22 | 342 | 4.8 | 11.3 | 0.00 | 0.00 | 0.00 | 59 | 1011.2 |
| 20260504204807 | 23 | 312 | 3.2 | 9.7 | 0.00 | 0.00 | 0.00 | 59 | 1011.1 |
| 20260504204331 | 23 | 312 | 4.8 | 9.7 | 0.00 | 0.00 | 0.00 | 56 | 1011.1 |
| 20260504203809 | 22 | 347 | 4.8 | 9.7 | 0.00 | 0.00 | 0.00 | 56 | 1011.1 |
| 20260504203311 | 22 | 290 | 3.2 | 8.0 | 0.00 | 0.00 | 0.00 | 56 | 1011.2 |
| 20260504202830 | 22 | 341 | 3.2 | 8.0 | 0.00 | 0.00 | 0.00 | 58 | 1011.2 |
| 20260504202328 | 22 | 289 | 4.8 | 8.0 | 0.00 | 0.00 | 0.00 | 57 | 1011.2 |
| 20260504201845 | 22 | 347 | 4.8 | 8.0 | 0.00 | 0.00 | 0.00 | 57 | 1011.2 |
| 20260504201323 | 23 | 310 | 4.8 | 11.3 | 0.00 | 0.00 | 0.00 | 56 | 1011.2 |
| 20260504200820 | 23 | 318 | 4.8 | 11.3 | 0.00 | 0.00 | 0.00 | 56 | 1011.2 |
| 20260504200312 | 23 | 324 | 6.4 | 9.7 | 0.00 | 0.00 | 0.00 | 54 | 1011.2 |
| 20260504195830 | 23 | 352 | 1.6 | 9.7 | 0.00 | 0.00 | 0.00 | 52 | 1011.2 |
| 20260504195308 | 23 | 309 | 3.2 | 9.7 | 0.00 | 0.00 | 0.00 | 50 | 1011.2 |
| 20260504194829 | 23 | 303 | 1.6 | 9.7 | 0.00 | 0.00 | 0.00 | 49 | 1011.2 |
| 20260504194351 | 23 | 306 | 1.6 | 9.7 | 0.00 | 0.00 | 0.00 | 50 | 1011.2 |
| 20260504193805 | 23 | 348 | 1.6 | 8.0 | 0.00 | 0.00 | 0.00 | 47 | 1011.2 |
| 20260504193334 | 23 | 314 | 3.2 | 9.7 | 0.00 | 0.00 | 0.00 | 49 | 1011.4 |
| 20260504192850 | 23 | 276 | 3.2 | 9.7 | 0.00 | 0.00 | 0.00 | 49 | 1011.4 |
| 20260504192320 | 23 | 6 | 1.6 | 8.0 | 0.00 | 0.00 | 0.00 | 48 | 1011.4 |
| 20260504191808 | 23 | 316 | 3.2 | 8.0 | 0.00 | 0.00 | 0.00 | 48 | 1011.2 |
| 20260504191353 | 23 | 322 | 3.2 | 8.0 | 0.00 | 0.00 | 0.00 | 48 | 1011.2 |
| 20260504190853 | 23 | 306 | 3.2 | 8.0 | 0.00 | 0.00 | 0.00 | 49 | 1011.2 |
| 20260504190325 | 22 | 293 | 3.2 | 8.0 | 0.00 | 0.00 | 0.00 | 51 | 1011.2 |
| 20260504185838 | 22 | 322 | 3.2 | 8.0 | 0.00 | 0.00 | 0.00 | 51 | 1011.2 |
| 20260504185325 | 22 | 320 | 3.2 | 9.7 | 0.00 | 0.00 | 0.00 | 51 | 1011.2 |
| 20260504184820 | 22 | 291 | 4.8 | 9.7 | 0.00 | 0.00 | 0.00 | 50 | 1011.4 |
| 20260504184307 | 22 | 6 | 3.2 | 8.0 | 0.00 | 0.00 | 0.00 | 52 | 1011.4 |
| 20260504183807 | 22 | 307 | 3.2 | 9.7 | 0.00 | 0.00 | 0.00 | 53 | 1011.4 |
| 20260504183323 | 22 | 272 | 4.8 | 12.9 | 0.00 | 0.00 | 0.00 | 52 | 1011.6 |
| 20260504182820 | 22 | 325 | 6.4 | 12.9 | 0.00 | 0.00 | 0.00 | 53 | 1011.6 |
| 20260504182310 | 22 | 316 | 6.4 | 11.3 | 0.00 | 0.00 | 0.00 | 52 | 1011.6 |
| 20260504181834 | 21 | 285 | 4.8 | 11.3 | 0.00 | 0.00 | 0.00 | 55 | 1011.5 |
| 20260504181353 | 21 | 275 | 6.4 | 12.9 | 0.00 | 0.00 | 0.00 | 53 | 1011.5 |
| 20260504180824 | 21 | 281 | 6.4 | 12.9 | 0.00 | 0.00 | 0.00 | 55 | 1011.5 |
| 20260504180331 | 21 | 304 | 6.4 | 14.5 | 0.00 | 0.00 | 0.00 | 54 | 1011.3 |
| 20260504175827 | 21 | 293 | 8.0 | 14.5 | 0.00 | 0.00 | 0.00 | 54 | 1011.3 |
| 20260504175319 | 21 | 324 | 4.8 | 14.5 | 0.00 | 0.00 | 0.00 | 56 | 1011.3 |
| 20260504174832 | 21 | 330 | 8.0 | 12.9 | 0.00 | 0.00 | 0.00 | 55 | 1011.2 |
| 20260504174312 | 21 | 317 | 4.8 | 14.5 | 0.00 | 0.00 | 0.00 | 56 | 1011.2 |
| 20260504173830 | 21 | 305 | 8.0 | 14.5 | 0.00 | 0.00 | 0.00 | 54 | 1011.2 |
| 20260504173309 | 21 | 276 | 6.4 | 12.9 | 0.00 | 0.00 | 0.00 | 57 | 1011.3 |
| 20260504172830 | 21 | 350 | 6.4 | 14.5 | 0.00 | 0.00 | 0.00 | 53 | 1011.3 |
| 20260504172310 | 21 | 333 | 8.0 | 16.1 | 0.00 | 0.00 | 0.00 | 54 | 1011.3 |
| 20260504171830 | 21 | 326 | 8.0 | 16.1 | 0.00 | 0.00 | 0.00 | 52 | 1011.4 |
| 20260504171307 | 21 | 282 | 6.4 | 14.5 | 0.00 | 0.00 | 0.00 | 56 | 1011.4 |
| 20260504170825 | 21 | 303 | 3.2 | 11.3 | 0.00 | 0.00 | 0.00 | 58 | 1011.4 |
| 20260504170341 | 21 | 299 | 8.0 | 11.3 | 0.00 | 0.00 | 0.00 | 55 | 1011.4 |
| 20260504160327 | 21 | 318 | 4.8 | 9.7 | 0.00 | 0.00 | 0.00 | 50 | 1011.1 |
| 20260504150823 | 20 | 287 | 0.0 | 0.0 | 0.00 | 0.00 | 0.00 | 51 | 1010.9 |
| 20260504150323 | 20 | 316 | 0.0 | 0.0 | 0.00 | 0.00 | 0.00 | 52 | 1010.8 |
| 20260504141327 | 18 | 220 | 0.0 | 1.6 | 0.00 | 0.00 | 0.00 | 64 | 1010.5 |
| 20260504140818 | 18 | 220 | 0.0 | 3.2 | 0.00 | 0.00 | 0.00 | 62 | 1010.5 |
| 20260504140331 | 18 | 220 | 0.0 | 3.2 | 0.00 | 0.00 | 0.00 | 62 | 1010.5 |
| 20260504130329 | 15 | 195 | 6.4 | 8.0 | 0.00 | 0.00 | 0.00 | 60 | 1010.3 |
| 20260504120305 | 15 | 248 | 0.0 | 1.6 | 0.00 | 0.00 | 0.00 | 60 | 1010.0 |
| 20260504110330 | 15 | 170 | 1.6 | 4.8 | 0.00 | 0.00 | 0.00 | 59 | 1010.0 |
| 20260504100327 | 15 | 178 | 3.2 | 8.0 | 0.00 | 0.00 | 0.00 | 59 | 1009.9 |